• In Hungary
  • List of Countries
  • For 7 days
  • Water Temperature
  • Satellite Maps
  • Weather Map
  • News
  • Weather Widgets
  • user-avatar
    Login

    Hourly Weather Saurimo

    Today, 22 October, Monday

    Time Temperature Precipitation Wind Pressure Humidity
    00:00 +22°C° 1.2 mm 1 mps 669 mmHg 85%
    01:00 +21°C° 0 mm 1 mps 669 mmHg 88%
    02:00 +21°C° 0.6 mm 1 mps 669 mmHg 89%
    03:00 +21°C° 0.6 mm 1 mps 669 mmHg 90%
    04:00 +21°C° 0.6 mm 1 mps 669 mmHg 91%
    05:00 +21°C° 0 mm 2 mps 670 mmHg 88%
    06:00 +21°C° 0 mm 2 mps 670 mmHg 84%
    07:00 +22°C° 0 mm 3 mps 671 mmHg 80%
    08:00 +25°C° 0.4 mm 3 mps 671 mmHg 72%
    09:00 +27°C° 0.4 mm 4 mps 671 mmHg 64%
    10:00 +29°C° 0.4 mm 4 mps 671 mmHg 56%
    11:00 +30°C° 0.2 mm 4 mps 671 mmHg 52%
    12:00 +30°C° 0.2 mm 4 mps 671 mmHg 48%
    13:00 +32°C° 0.2 mm 4 mps 671 mmHg 44%
    14:00 +32°C° 0 mm 4 mps 670 mmHg 45%
    15:00 +30°C° 0 mm 4 mps 670 mmHg 45%
    16:00 +30°C° 0 mm 3 mps 670 mmHg 46%
    17:00 +28°C° 0.2 mm 3 mps 670 mmHg 54%
    18:00 +26°C° 0.2 mm 3 mps 670 mmHg 62%
    19:00 +24°C° 0.2 mm 3 mps 670 mmHg 70%
    20:00 +22°C° 0 mm 3 mps 671 mmHg 72%
    21:00 +22°C° 0 mm 3 mps 671 mmHg 75%
    22:00 +21°C° 0 mm 3 mps 671 mmHg 77%
    23:00 +21°C° 0 mm 2 mps 671 mmHg 78%

    Tomorrow, 23 October, Tuesday

    Time Temperature Precipitation Wind Pressure Humidity
    00:00 +21°C° 0 mm 1 mps 670 mmHg 80%
    01:00 +21°C° 0 mm 1 mps 670 mmHg 82%
    02:00 +21°C° 0 mm 1 mps 670 mmHg 80%
    03:00 +21°C° 0 mm 1 mps 670 mmHg 79%
    04:00 +21°C° 0 mm 1 mps 670 mmHg 77%
    05:00 +22°C° 0 mm 1 mps 670 mmHg 73%
    06:00 +23°C° 0 mm 1 mps 671 mmHg 68%
    07:00 +23°C° 0 mm 1 mps 672 mmHg 64%
    08:00 +26°C° 0.2 mm 2 mps 672 mmHg 58%
    09:00 +28°C° 0.2 mm 2 mps 673 mmHg 52%
    10:00 +30°C° 0.2 mm 3 mps 673 mmHg 46%
    11:00 +30°C° 0 mm 3 mps 673 mmHg 44%
    12:00 +31°C° 0 mm 3 mps 672 mmHg 41%
    13:00 +31°C° 0 mm 3 mps 672 mmHg 39%
    14:00 +30°C° 0.2 mm 3 mps 671 mmHg 42%
    15:00 +30°C° 0.2 mm 3 mps 671 mmHg 46%
    16:00 +29°C° 0.2 mm 2 mps 670 mmHg 49%
    17:00 +27°C° 0.2 mm 2 mps 670 mmHg 55%
    18:00 +25°C° 0.2 mm 1 mps 671 mmHg 62%
    19:00 +24°C° 0.2 mm 1 mps 671 mmHg 68%
    20:00 +23°C° 0.3 mm 1 mps 671 mmHg 73%
    21:00 +22°C° 0.3 mm 1 mps 671 mmHg 77%
    22:00 +22°C° 0.3 mm 1 mps 672 mmHg 82%
    23:00 +21°C° 0 mm 1 mps 671 mmHg 84%

    Day after tomorrow, 24 October, Wednesday

    Time Temperature Precipitation Wind Pressure Humidity
    00:00 +20°C° 0 mm 2 mps 671 mmHg 86%
    01:00 +19°C° 0 mm 2 mps 670 mmHg 88%
    02:00 +19°C° 0 mm 2 mps 670 mmHg 88%
    03:00 +19°C° 0 mm 2 mps 670 mmHg 88%
    04:00 +20°C° 0 mm 1 mps 669 mmHg 88%
    05:00 +20°C° 0 mm 2 mps 670 mmHg 83%
    06:00 +21°C° 0 mm 2 mps 671 mmHg 77%
    07:00 +22°C° 0 mm 3 mps 672 mmHg 72%
    08:00 +26°C° 0.2 mm 3 mps 672 mmHg 64%
    09:00 +28°C° 0.2 mm 3 mps 672 mmHg 56%
    10:00 +31°C° 0.2 mm 3 mps 673 mmHg 48%
    11:00 +31°C° 0.3 mm 3 mps 672 mmHg 47%
    12:00 +31°C° 0.3 mm 2 mps 671 mmHg 46%
    13:00 +31°C° 0.3 mm 2 mps 671 mmHg 44%
    14:00 +31°C° 0 mm 2 mps 670 mmHg 44%
    15:00 +31°C° 0 mm 2 mps 670 mmHg 44%
    16:00 +30°C° 0 mm 2 mps 669 mmHg 43%
    17:00 +28°C° 0.2 mm 1 mps 669 mmHg 51%
    18:00 +26°C° 0.2 mm 1 mps 670 mmHg 58%
    19:00 +24°C° 0.2 mm 1 mps 670 mmHg 66%
    20:00 +24°C° 0.1 mm 1 mps 670 mmHg 70%
    21:00 +23°C° 0.1 mm 1 mps 670 mmHg 73%
    22:00 +20°C° 0.1 mm 0 mps 670 mmHg 77%
    23:00 +21°C° 0.2 mm 1 mps 670 mmHg 80%

    25 October, Thursday

    Time Temperature Precipitation Wind Pressure Humidity
    00:00 +21°C° 0.2 mm 1 mps 669 mmHg 84%
    01:00 +19°C° 0.2 mm 2 mps 669 mmHg 88%
    02:00 +19°C° 0.2 mm 2 mps 669 mmHg 90%
    03:00 +19°C° 0.2 mm 2 mps 669 mmHg 92%
    04:00 +19°C° 0.2 mm 2 mps 669 mmHg 94%
    05:00 +20°C° 0 mm 2 mps 670 mmHg 88%
    06:00 +21°C° 0 mm 3 mps 670 mmHg 82%
    07:00 +22°C° 0 mm 3 mps 671 mmHg 76%
    08:00 +26°C° 0 mm 3 mps 671 mmHg 61%
    09:00 +29°C° 0 mm 3 mps 672 mmHg 46%
    10:00 +34°C° 0 mm 3 mps 672 mmHg 32%
    11:00 +34°C° 0 mm 3 mps 671 mmHg 30%
    12:00 +35°C° 0 mm 2 mps 671 mmHg 28%
    13:00 +36°C° 0 mm 2 mps 670 mmHg 27%
    14:00 +35°C° 0 mm 2 mps 670 mmHg 30%
    15:00 +32°C° 0 mm 1 mps 669 mmHg 34%
    16:00 +31°C° 0 mm 1 mps 669 mmHg 37%
    17:00 +30°C° 0 mm 1 mps 669 mmHg 40%
    18:00 +28°C° 0 mm 1 mps 669 mmHg 44%
    19:00 +27°C° 0 mm 1 mps 670 mmHg 47%
    20:00 +25°C° 0 mm 1 mps 670 mmHg 51%
    21:00 +24°C° 0 mm 1 mps 670 mmHg 55%
    22:00 +23°C° 0 mm 1 mps 670 mmHg 60%
    23:00 +23°C° 0.2 mm 1 mps 670 mmHg 65%

    26 October, Friday

    Time Temperature Precipitation Wind Pressure Humidity
    00:00 +22°C° 0.2 mm 1 mps 669 mmHg 71%
    01:00 +21°C° 0.2 mm 1 mps 669 mmHg 77%
    02:00 +21°C° 0 mm 1 mps 669 mmHg 78%
    03:00 +21°C° 0 mm 1 mps 669 mmHg 79%
    04:00 +21°C° 0 mm 1 mps 669 mmHg 80%
    05:00 +22°C° 0 mm 1 mps 670 mmHg 75%
    06:00 +23°C° 0 mm 1 mps 671 mmHg 70%
    07:00 +24°C° 0 mm 1 mps 671 mmHg 65%
    08:00 +28°C° 0 mm 1 mps 672 mmHg 54%
    09:00 +31°C° 0 mm 1 mps 672 mmHg 44%
    10:00 +35°C° 0 mm 1 mps 673 mmHg 33%
    11:00 +35°C° 0 mm 2 mps 672 mmHg 32%
    12:00 +35°C° 0 mm 2 mps 671 mmHg 32%
    13:00 +35°C° 0 mm 2 mps 670 mmHg 32%
    14:00 +34°C° 0 mm 2 mps 670 mmHg 33%
    15:00 +32°C° 0 mm 2 mps 670 mmHg 34%
    16:00 +32°C° 0 mm 1 mps 670 mmHg 35%
    17:00 +30°C° 0 mm 1 mps 670 mmHg 39%
    18:00 +28°C° 0 mm 1 mps 670 mmHg 43%
    19:00 +26°C° 0 mm 1 mps 670 mmHg 47%
    20:00 +26°C° 0 mm 1 mps 670 mmHg 50%
    21:00 +25°C° 0 mm 1 mps 670 mmHg 53%
    22:00 +22°C° 0 mm 0 mps 670 mmHg 56%
    23:00 +21°C° 0 mm 0 mps 670 mmHg 60%

    27 October, Saturday

    Time Temperature Precipitation Wind Pressure Humidity
    00:00 +21°C° 0 mm 0 mps 669 mmHg 63%
    01:00 +20°C° 0 mm 0 mps 669 mmHg 66%
    02:00 +22°C° 0 mm 1 mps 669 mmHg 67%
    03:00 +21°C° 0 mm 1 mps 669 mmHg 68%
    04:00 +21°C° 0 mm 1 mps 669 mmHg 69%
    05:00 +23°C° 0 mm 1 mps 670 mmHg 63%
    06:00 +24°C° 0 mm 1 mps 671 mmHg 57%
    07:00 +26°C° 0 mm 1 mps 672 mmHg 50%
    08:00 +29°C° 0 mm 1 mps 672 mmHg 43%
    09:00 +33°C° 0 mm 1 mps 672 mmHg 35%
    10:00 +37°C° 0 mm 2 mps 673 mmHg 27%
    11:00 +36°C° 0 mm 2 mps 672 mmHg 28%
    12:00 +36°C° 0 mm 2 mps 671 mmHg 29%
    13:00 +35°C° 0 mm 2 mps 670 mmHg 29%
    14:00 +35°C° 0 mm 2 mps 669 mmHg 30%
    15:00 +35°C° 0 mm 2 mps 669 mmHg 31%
    16:00 +35°C° 0 mm 2 mps 669 mmHg 32%
    17:00 +32°C° 0 mm 2 mps 669 mmHg 38%
    18:00 +29°C° 0 mm 1 mps 669 mmHg 44%
    19:00 +27°C° 0 mm 1 mps 669 mmHg 50%
    20:00 +26°C° 0 mm 1 mps 669 mmHg 53%
    21:00 +26°C° 0 mm 1 mps 670 mmHg 57%
    22:00 +25°C° 0 mm 1 mps 670 mmHg 60%
    23:00 +24°C° 0 mm 1 mps 669 mmHg 65%

    28 October, Sunday

    Time Temperature Precipitation Wind Pressure Humidity
    00:00 +23°C° 0 mm 1 mps 669 mmHg 70%
    01:00 +23°C° 0 mm 1 mps 669 mmHg 75%
    02:00 +22°C° 0.3 mm 1 mps 669 mmHg 79%
    03:00 +21°C° 0.3 mm 1 mps 669 mmHg 84%
    04:00 +21°C° 0.3 mm 1 mps 669 mmHg 88%
    05:00 +22°C° 0.3 mm 1 mps 670 mmHg 85%
    06:00 +23°C° 0.3 mm 1 mps 670 mmHg 81%
    07:00 +24°C° 0.3 mm 1 mps 671 mmHg 78%
    08:00 +29°C° 0 mm 1 mps 672 mmHg 63%
    09:00 +34°C° 0 mm 1 mps 673 mmHg 48%
    10:00 +36°C° 0 mm 0 mps 673 mmHg 33%
    11:00 +37°C° 0 mm 1 mps 672 mmHg 35%
    12:00 +35°C° 0 mm 1 mps 671 mmHg 37%
    13:00 +33°C° 0 mm 1 mps 669 mmHg 39%
    14:00 +35°C° 0 mm 2 mps 669 mmHg 37%
    15:00 +35°C° 0 mm 2 mps 669 mmHg 35%
    16:00 +35°C° 0 mm 2 mps 669 mmHg 33%
    17:00 +32°C° 0 mm 2 mps 669 mmHg 38%
    18:00 +30°C° 0 mm 1 mps 669 mmHg 44%
    19:00 +28°C° 0 mm 1 mps 670 mmHg 49%
    20:00 +26°C° 0.6 mm 1 mps 669 mmHg 60%
    21:00 +25°C° 0.6 mm 1 mps 669 mmHg 70%
    22:00 +23°C° 0.6 mm 1 mps 669 mmHg 80%
    23:00 +22°C° 0.7 mm 1 mps 669 mmHg 84%
    Show more